一网星座-0063星 (ONEWEB-0063 )

导读

ONEWEB-0063是英国OneWeb公司低轨卫星互联网星座中的一颗卫星,于2020年3月21日搭载联盟号火箭自哈萨克斯坦拜科努尔发射场成功发射,属于该公司星座组网的第三批发射卫星之一。该卫星单颗重约147.5kg,最终运行在1200公里高度的近地轨道,属于OneWeb一期星座组网卫星,旨在为全球提供高速低延时的卫星互联网接入服务,助力填补偏远地区通信基础设施缺口。

Basic Information
目录编号:
45448
目录名称:
ONEWEB-0063
国际标识:
2020-020AA
轨道中心:
EARTH
卫星名称:
一网星座-0063星
卫星全名:
一网星座-0063星 (ONEWEB-0063 )
卫星状态:
在轨 (已飞行2319 天)
发射日期:
2020-03-21 UTC
国别 :
英国 (GB)
星等 :
--
Orbit Information
数据来源 国际轨道数据 AOE轨道数据
星历时间 2026-07-27T17:10:37+0800
13小时前
查看轨道信息
2026-07-28T00:00:00+0800
6小时前
查看轨道信息
半长轴 7595.826km 7595.842km
偏心率 0.0001686 0.0001699
轨道倾角 87.890° 87.890°
近地点辐角 83.517° 86.566°
升交点赤经 13.068° 13.011°
平近点角 276.615° 174.984°
近地点 1216.408km 1216.414km
远地点 1218.97km 1218.996km
周期 109.805分钟 109.805分钟
每日圈数 13.114155 13.114114
Detailed Information
平衡模式:
三轴稳定
覆盖范围:
全球
运营商:
一网卫星公司
运营商所在国:
英国
制造商(研发单位):
一网卫星公司
制造商所在国:
英国
使用方式:
暂无
Satellite Introduction
OneWeb卫星网络由648颗重约125公斤的微型卫星组成,运行在1200公里的轨道上。 每颗卫星都能够提供至少每秒8千兆位的吞吐量,以使用其高吞吐量的Ku频段有效载荷为家庭和移动平台提供互联网接入。该卫星仍在工作。
2D Orbit Map
3D Orbit Map
Orbit Altitude Analysis Chart
Orbit Inclination Analysis Chart
Orbit Comprehensive Analysis Chart
View Comprehensive Chart